EN

Hourly Weather Lagow

Today, 4 August, Wednesday

Time Temperature Precipitation Wind Pressure Humidity
00:00 +18°C° 0.1 mm 1 mps 748 mmHg 74%
01:00 +16°C° 0.1 mm 1 mps 748 mmHg 77%
02:00 +16°C° 0.2 mm 1 mps 748 mmHg 80%
03:00 +16°C° 0.2 mm 1 mps 748 mmHg 83%
04:00 +16°C° 0.2 mm 1 mps 748 mmHg 86%
05:00 +16°C° 0.1 mm 1 mps 748 mmHg 86%
06:00 +16°C° 0.1 mm 1 mps 748 mmHg 86%
07:00 +18°C° 0.1 mm 1 mps 749 mmHg 85%
08:00 +19°C° 0.6 mm 1 mps 749 mmHg 79%
09:00 +20°C° 0.6 mm 1 mps 749 mmHg 74%
10:00 +21°C° 0.6 mm 1 mps 749 mmHg 68%
11:00 +21°C° 0.5 mm 2 mps 748 mmHg 63%
12:00 +23°C° 0.5 mm 2 mps 748 mmHg 58%
13:00 +24°C° 0.5 mm 2 mps 748 mmHg 54%
14:00 +24°C° 0.5 mm 2 mps 748 mmHg 55%
15:00 +23°C° 0.5 mm 2 mps 748 mmHg 56%
16:00 +23°C° 0.5 mm 2 mps 748 mmHg 57%
17:00 +21°C° 0.3 mm 2 mps 748 mmHg 62%
18:00 +21°C° 0.3 mm 1 mps 748 mmHg 67%
19:00 +20°C° 0.3 mm 1 mps 747 mmHg 72%
20:00 +20°C° 0.2 mm 1 mps 748 mmHg 75%
21:00 +19°C° 0.2 mm 1 mps 748 mmHg 79%
22:00 +18°C° 0.2 mm 1 mps 748 mmHg 82%
23:00 +16°C° 0 mm 1 mps 748 mmHg 83%

Tomorrow, 5 August, Thursday

Time Temperature Precipitation Wind Pressure Humidity
00:00 +16°C° 0 mm 1 mps 748 mmHg 85%
01:00 +15°C° 0 mm 2 mps 747 mmHg 86%
02:00 +15°C° 0 mm 2 mps 747 mmHg 87%
03:00 +15°C° 0 mm 2 mps 747 mmHg 89%
04:00 +14°C° 0 mm 2 mps 747 mmHg 91%
05:00 +15°C° 0 mm 2 mps 747 mmHg 88%
06:00 +16°C° 0 mm 2 mps 747 mmHg 85%
07:00 +17°C° 0 mm 2 mps 747 mmHg 82%
08:00 +19°C° 0.1 mm 2 mps 747 mmHg 75%
09:00 +20°C° 0.1 mm 3 mps 747 mmHg 68%
10:00 +22°C° 0.1 mm 3 mps 746 mmHg 61%
11:00 +22°C° 0.5 mm 3 mps 746 mmHg 59%
12:00 +24°C° 0.5 mm 3 mps 746 mmHg 56%
13:00 +24°C° 0.5 mm 3 mps 746 mmHg 54%
14:00 +24°C° 0.5 mm 3 mps 745 mmHg 57%
15:00 +22°C° 0.5 mm 3 mps 745 mmHg 60%
16:00 +22°C° 0.5 mm 3 mps 745 mmHg 64%
17:00 +21°C° 0.4 mm 2 mps 745 mmHg 68%
18:00 +20°C° 0.4 mm 2 mps 745 mmHg 73%
19:00 +19°C° 0.4 mm 2 mps 745 mmHg 78%
20:00 +19°C° 0.2 mm 1 mps 745 mmHg 79%
21:00 +19°C° 0.2 mm 1 mps 745 mmHg 81%
22:00 +18°C° 0.2 mm 1 mps 745 mmHg 83%
23:00 +18°C° 0.1 mm 1 mps 745 mmHg 84%

Day after tomorrow, 6 August, Friday

Time Temperature Precipitation Wind Pressure Humidity
00:00 +18°C° 0.1 mm 1 mps 745 mmHg 85%
01:00 +16°C° 0.1 mm 0 mps 744 mmHg 86%
02:00 +15°C° 0.2 mm 0 mps 744 mmHg 87%
03:00 +15°C° 0.2 mm 0 mps 744 mmHg 88%
04:00 +15°C° 0.2 mm 0 mps 744 mmHg 89%
05:00 +16°C° 0.4 mm 1 mps 744 mmHg 89%
06:00 +16°C° 0.4 mm 1 mps 744 mmHg 90%
07:00 +18°C° 0.4 mm 1 mps 745 mmHg 90%
08:00 +19°C° 0.1 mm 1 mps 745 mmHg 84%
09:00 +19°C° 0.1 mm 2 mps 745 mmHg 78%
10:00 +20°C° 0.1 mm 2 mps 745 mmHg 72%
11:00 +21°C° 0.2 mm 2 mps 745 mmHg 65%
12:00 +23°C° 0.2 mm 1 mps 745 mmHg 59%
13:00 +24°C° 0.2 mm 1 mps 745 mmHg 53%
14:00 +24°C° 0.1 mm 1 mps 745 mmHg 51%
15:00 +25°C° 0.1 mm 2 mps 745 mmHg 49%
16:00 +25°C° 0.1 mm 2 mps 745 mmHg 47%
17:00 +24°C° 0 mm 2 mps 745 mmHg 52%
18:00 +23°C° 0 mm 1 mps 745 mmHg 57%
19:00 +22°C° 0 mm 1 mps 745 mmHg 62%
20:00 +21°C° 0 mm 1 mps 745 mmHg 66%
21:00 +19°C° 0 mm 2 mps 745 mmHg 69%
22:00 +18°C° 0 mm 2 mps 745 mmHg 72%
23:00 +17°C° 0 mm 2 mps 745 mmHg 74%

7 August, Saturday

Time Temperature Precipitation Wind Pressure Humidity
00:00 +17°C° 0 mm 2 mps 745 mmHg 76%
01:00 +16°C° 0 mm 2 mps 745 mmHg 78%
02:00 +16°C° 0 mm 2 mps 745 mmHg 80%
03:00 +16°C° 0 mm 2 mps 745 mmHg 82%
04:00 +16°C° 0 mm 2 mps 745 mmHg 84%
05:00 +17°C° 0 mm 2 mps 746 mmHg 80%
06:00 +18°C° 0 mm 2 mps 746 mmHg 77%
07:00 +19°C° 0 mm 2 mps 746 mmHg 73%
08:00 +21°C° 0 mm 2 mps 746 mmHg 67%
09:00 +23°C° 0 mm 2 mps 746 mmHg 60%
10:00 +25°C° 0 mm 2 mps 746 mmHg 54%
11:00 +26°C° 0 mm 2 mps 746 mmHg 50%
12:00 +27°C° 0 mm 3 mps 745 mmHg 46%
13:00 +28°C° 0 mm 3 mps 745 mmHg 43%
14:00 +28°C° 0 mm 3 mps 745 mmHg 41%
15:00 +28°C° 0 mm 3 mps 745 mmHg 40%
16:00 +28°C° 0 mm 2 mps 744 mmHg 38%
17:00 +27°C° 0 mm 2 mps 744 mmHg 44%
18:00 +26°C° 0 mm 2 mps 744 mmHg 50%
19:00 +25°C° 0 mm 1 mps 744 mmHg 55%
20:00 +24°C° 0 mm 1 mps 745 mmHg 58%
21:00 +23°C° 0 mm 1 mps 745 mmHg 60%
22:00 +22°C° 0 mm 1 mps 745 mmHg 62%
23:00 +21°C° 0 mm 2 mps 745 mmHg 65%

8 August, Sunday

Time Temperature Precipitation Wind Pressure Humidity
00:00 +20°C° 0 mm 2 mps 745 mmHg 68%
01:00 +20°C° 0 mm 3 mps 745 mmHg 70%
02:00 +19°C° 0.2 mm 3 mps 745 mmHg 76%
03:00 +19°C° 0.2 mm 2 mps 746 mmHg 82%
04:00 +18°C° 0.2 mm 2 mps 746 mmHg 87%
05:00 +18°C° 0.9 mm 2 mps 746 mmHg 89%
06:00 +18°C° 0.9 mm 3 mps 747 mmHg 91%
07:00 +18°C° 0.9 mm 3 mps 747 mmHg 92%
08:00 +19°C° 0 mm 3 mps 747 mmHg 81%
09:00 +21°C° 0 mm 4 mps 748 mmHg 71%
10:00 +22°C° 0 mm 4 mps 748 mmHg 60%
11:00 +25°C° 0 mm 4 mps 748 mmHg 53%
12:00 +26°C° 0 mm 5 mps 748 mmHg 46%
13:00 +27°C° 0 mm 5 mps 748 mmHg 39%
14:00 +27°C° 0 mm 5 mps 748 mmHg 38%
15:00 +27°C° 0 mm 4 mps 749 mmHg 37%
16:00 +27°C° 0 mm 4 mps 749 mmHg 36%
17:00 +26°C° 0 mm 3 mps 749 mmHg 42%
18:00 +24°C° 0 mm 3 mps 749 mmHg 49%
19:00 +23°C° 0 mm 2 mps 750 mmHg 55%
20:00 +21°C° 0 mm 2 mps 750 mmHg 56%
21:00 +21°C° 0 mm 2 mps 750 mmHg 56%
22:00 +20°C° 0 mm 2 mps 750 mmHg 57%
23:00 +20°C° 0.1 mm 2 mps 751 mmHg 61%

9 August, Monday

Time Temperature Precipitation Wind Pressure Humidity
00:00 +19°C° 0.1 mm 2 mps 751 mmHg 65%
01:00 +19°C° 0.1 mm 2 mps 751 mmHg 70%
02:00 +18°C° 0 mm 2 mps 751 mmHg 74%
03:00 +17°C° 0 mm 2 mps 751 mmHg 79%
04:00 +16°C° 0 mm 2 mps 751 mmHg 84%
05:00 +17°C° 0 mm 3 mps 752 mmHg 81%
06:00 +17°C° 0 mm 3 mps 752 mmHg 78%
07:00 +18°C° 0 mm 3 mps 753 mmHg 75%
08:00 +19°C° 0 mm 3 mps 753 mmHg 67%
09:00 +21°C° 0 mm 3 mps 753 mmHg 60%
10:00 +22°C° 0 mm 4 mps 753 mmHg 52%
11:00 +23°C° 0 mm 4 mps 753 mmHg 47%
12:00 +23°C° 0 mm 4 mps 753 mmHg 42%
13:00 +25°C° 0 mm 4 mps 753 mmHg 37%
14:00 +25°C° 0 mm 4 mps 753 mmHg 39%
15:00 +23°C° 0 mm 4 mps 753 mmHg 40%
16:00 +24°C° 0 mm 3 mps 753 mmHg 41%
17:00 +23°C° 0 mm 2 mps 753 mmHg 44%
18:00 +23°C° 0 mm 2 mps 753 mmHg 47%
19:00 +22°C° 0 mm 1 mps 754 mmHg 50%
20:00 +21°C° 0 mm 1 mps 754 mmHg 54%
21:00 +19°C° 0 mm 2 mps 754 mmHg 57%
22:00 +18°C° 0 mm 2 mps 754 mmHg 61%
23:00 +17°C° 0 mm 2 mps 754 mmHg 65%
Show more